#timestamp,LO_Frequency,Hit,StdDev 
1502816415.0,286047002.4,N,1.0
1502816415.9,286047002.4,N,0.9
1502816435.8,286047002.5,N,0.9
1502816455.6,286047002.6,N,0.9
1502816475.4,286047002.0,N,0.9
1502816495.3,286047002.3,N,0.8
1502816515.1,286047000.2,N,0.8
1502816535.9,286047002.7,Y,0.0
1502816555.7,286046998.3,P,1.9
1502816575.5,286046998.5,N,1.8
1502816595.4,286046998.5,N,1.6
1502816615.2,286046998.3,N,1.5
1502816635.1,286046998.4,N,1.4
1502816636.0,286046998.4,N,1.3
1502816655.8,286047000.8,N,1.4
1502816675.6,286047000.7,N,1.4
1502816695.5,286047001.2,N,1.4
1502816715.3,286047000.9,N,1.4
1502816735.2,286047000.7,N,1.4
1502816755.9,286047000.7,N,1.4
1502816775.7,286047000.9,N,1.3
1502816795.6,286047001.2,N,1.3
1502816815.4,286047000.8,N,1.3
1502816835.2,286047001.0,N,1.3
1502816855.1,286047000.9,N,1.3
1502816856.0,286047000.9,N,1.2
1502816875.8,286047000.8,N,1.2
1502816895.7,286046998.1,N,1.3
1502816915.5,286047000.4,N,1.2
1502816935.3,286047000.6,N,1.2
1502816955.2,286046998.2,N,1.3
1502816975.0,286046998.6,N,1.3
1502816975.9,286046998.6,N,1.3
1502816995.8,286047000.5,N,1.2
1502817015.6,286046998.1,N,1.3
1502817035.4,286047000.7,N,1.3
1502817055.3,286047000.4,N,1.2
1502817075.1,286047001.1,N,1.2
1502817095.9,286046998.5,N,1.2
1502817115.7,286046998.5,N,1.2
1502817135.5,286047000.5,N,1.2
1502817155.4,286047000.7,N,1.1
1502817175.2,286047001.2,N,1.1
1502817195.1,286047001.2,N,1.1
1502817196.0,286047001.2,N,1.1
1502817215.8,286047000.8,N,1.1
1502817235.6,286046998.3,N,1.1
1502817255.5,286046998.7,N,1.1
1502817275.3,286046998.6,N,1.2
1502817295.2,286046999.1,N,1.2
1502817315.0,286046999.5,N,1.2
1502817315.9,286046999.5,N,1.1
1502817335.8,286046999.3,N,1.1
1502817355.6,286046996.5,Y,0.0
1502817375.4,286046996.7,P,1.6
1502817395.3,286046996.9,N,1.4
1502817415.1,286046997.6,N,1.2
1502817435.9,286046995.1,Y,0.0
1502817455.7,286046996.5,P,0.6
1502817475.5,286046996.6,P,0.6
1502817495.4,286046997.0,P,0.5
1502817515.2,286046996.9,Y,0.0
1502817535.1,286046999.8,P,1.4
1502817536.0,286046999.8,N,1.3
1502817555.8,286046999.9,N,1.2
1502817575.6,286047001.2,N,1.4
1502817595.5,286047000.8,N,1.4
1502817615.3,286047000.9,N,1.3
1502817635.2,286046999.0,N,1.3
1502817655.9,286046998.4,N,1.3
1502817675.7,286046998.8,N,1.2
1502817695.6,286046998.7,N,1.2
1502817715.4,286046999.0,N,1.2
1502817735.2,286046999.5,N,1.1
1502817755.1,286046997.2,N,1.2
1502817756.0,286046997.2,N,1.3
1502817775.8,286046997.8,N,1.3
1502817795.7,286046999.1,N,1.2
1502817815.5,286046999.4,N,1.2
1502817835.3,286046997.1,N,1.3
1502817855.2,286046998.9,N,1.2
1502817875.0,286046998.8,N,1.2
1502817875.9,286046998.8,N,1.2
1502817895.8,286046999.5,N,1.2
1502817915.6,286046997.8,N,1.2
1502817935.4,286046995.1,Y,0.0
1502817955.3,286046996.6,P,1.2
1502817975.1,286046997.0,N,1.0
1502817995.9,286046997.9,N,0.9
1502818015.7,286046998.0,N,0.8
1502818035.5,286046997.5,Y,0.0
1502818055.4,286046998.2,P,0.3
1502818075.2,286046998.3,P,0.3
1502818095.1,286046998.9,P,0.4
1502818096.0,286046998.9,N,0.5
1502818115.8,286046999.6,N,0.6
1502818135.6,286046997.1,Y,0.0
1502818155.5,286047001.2,P,1.3
1502818175.3,286047000.9,N,1.2
1502818195.2,286046999.9,N,1.0
1502818215.9,286047000.9,N,1.0
1502818235.7,286046998.5,N,1.1
1502818255.6,286046998.8,N,1.1
1502818275.4,286046999.2,N,1.1
1502818295.2,286047001.2,N,1.1
1502818315.1,286046998.6,N,1.1
1502818316.0,286046998.6,N,1.1
1502818335.8,286046998.3,N,1.1
1502818355.7,286046998.1,N,1.2
1502818375.5,286046998.2,N,1.2
1502818395.3,286046998.1,N,1.2
1502818415.2,286046999.3,N,1.1
1502818435.0,286046998.8,N,1.1
1502818435.9,286046998.8,N,1.1
1502818455.8,286046998.3,N,1.1
1502818475.6,286046998.8,N,1.0
1502818495.5,286046999.0,N,1.0
1502818515.3,286046998.8,N,1.0
1502818535.1,286046998.9,N,1.0
1502818555.9,286046996.5,Y,0.0
1502818575.7,286046998.9,P,0.1
1502818595.5,286046999.2,P,0.1
1502818615.4,286046998.4,P,0.3
1502818635.2,286046998.7,Y,0.0
1502818655.1,286047000.0,P,0.5
1502818656.0,286047000.0,N,0.5
1502818675.8,286046999.9,N,0.5
1502818695.7,286047002.7,Y,0.0
1502818715.5,286047002.3,P,1.3
1502818735.3,286047000.2,N,1.1
1502818755.2,286046999.8,N,1.1
1502818775.0,286047002.7,N,1.3
1502818775.9,286047002.7,N,1.3
1502818795.7,286046999.7,N,1.4
1502818815.6,286047000.4,N,1.3
1502818835.4,286047000.1,N,1.2
1502818855.3,286047001.5,N,1.2
1502818875.1,286047004.0,Y,0.0
1502818895.8,286047002.2,P,0.6
1502818915.7,286047002.4,P,0.7
1502818935.5,286047002.3,P,0.6
1502818955.4,286047002.8,Y,0.0
1502818975.2,286047000.7,P,0.6
1502818995.0,286047001.2,N,0.5
1502818995.9,286047001.2,N,0.4
1502819015.8,286047001.2,N,0.4
1502819035.6,286046998.3,Y,0.0
1502819055.5,286046999.3,P,1.0
1502819075.3,286046996.5,P,1.9
1502819095.1,286046999.5,N,1.7
1502819115.9,286046999.4,N,1.5
1502819135.7,286046996.5,N,1.7
1502819155.6,286046998.5,N,1.6
1502819175.4,286046998.8,N,1.5
1502819195.2,286046998.5,N,1.4
1502819215.1,286047001.1,N,1.5
1502819216.0,286047001.1,N,1.6
1502819235.8,286047000.8,N,1.6
1502819255.7,286047000.6,N,1.6
1502819275.5,286047000.5,N,1.5
1502819295.3,286047002.8,N,1.7
1502819315.2,286047000.1,N,1.6
1502819335.0,286047002.7,N,1.7
1502819335.9,286047002.7,N,1.8
1502819355.8,286046999.7,N,1.8
1502819375.6,286047002.6,N,1.8
1502819395.4,286047002.6,N,1.8
1502819415.3,286047002.7,N,1.9
1502819435.1,286047002.0,N,1.9
1502819455.9,286047002.7,N,1.9
1502819475.7,286047002.6,N,1.9
1502819495.5,286047002.2,N,1.9
1502819515.4,286047002.3,N,1.9
1502819535.2,286047002.5,N,1.9
1502819555.0,286047001.8,N,1.8
1502819556.0,286047001.8,N,1.8
1502819575.8,286047004.2,N,1.9
1502819595.6,286047004.4,N,2.0
1502819615.5,286047001.3,N,1.8
1502819635.3,286047001.7,N,1.7
1502819655.1,286047001.8,N,1.7
1502819675.9,286047003.7,N,1.5
1502819695.7,286047003.4,N,1.4
1502819715.6,286047003.1,N,1.3
1502819735.4,286047003.4,N,1.1
1502819755.3,286047003.7,Y,0.0
1502819775.1,286047002.5,P,0.2
1502819776.0,286047002.5,P,0.2
1502819795.8,286047002.0,P,0.2
1502819815.7,286047002.5,Y,0.0
1502819835.5,286046998.2,P,2.0
1502819855.4,286046998.2,N,1.9
1502819875.2,286047001.2,N,1.8
1502819895.0,286047000.9,N,1.7
1502819895.9,286047000.9,N,1.5
1502819915.8,286047000.0,N,1.4
1502819935.6,286047000.5,N,1.3
1502819955.5,286047000.1,N,1.3
1502819975.3,286047000.9,N,1.2
1502819995.1,286046999.7,N,1.2
